DELTA 1 DEB

Satellite information

Favourite Embed

Satellite Type and Status

DEBRISIN ORBIT

Key statistics

Satellite DELTA 1 DEB at a glance.

Uptime

17990

Days in orbit

Revolutions

≈ 12.0

Per day

Orbit

SSO

Sun Synchronous Orbit

Inclination

102.1

Latest

Satellite identification and parameters

Extended collection of information and parameters for DELTA 1 DEB.

Object identification

Identified? True

Debris? True

Object name: DELTA 1 DEB

International designator: 1976-077FK

Object number (NORAD): 19316

Object ID (CCSDS): 19316

Country: UNITED STATES OF AMERICA (US)

Current information (Y/N): Y

RCS size: SMALL

Orbital parameters

Period: 119.631 minutes

Inclination: 102.1348 deg

SMA: 8042.485 km

Apoapsis: 1832.261 km

Periapsis: 1496.439 km

RAAN: 81.3695 deg

Eccentricy: 0.02087803

Argument of periapsis: 102.8609 deg

Mean anomaly: 281.8858 deg

Mean motion: 12.03697576 rev/day

Mean motion (dot): 0.00000302 rev/day2

B* drag term: 0.0037889717 1/REarth

Two-line elements (TLE)

Creation date: Oct. 26, 2025, 2:54 a.m.

Reference frame: TEME

Reference center: EARTH

Epoch: Oct. 25, 2025, 9:29 a.m. UTC

TLE line 0: 0 DELTA 1 DEB

TLE line 1: 1 19316U 76077FK 25298.39527344 .00000302 00000-0 37890-2 0 9994

TLE line 2: 2 19316 102.1348 81.3695 0208780 102.8609 281.8858 12.03697576783772

Live tracking on map

Real-time ground track for satellite DELTA 1 DEB.

In-orbit conjunctions

A list of the most updated potential collisions computed for object DELTA 1 DEB.

Target Orbit TCA Probability of collision Miss distance Type
COSMOS 1136 LEO 2025-04-03 17:00:51 0.0001286146 347.0 (m) PAYLOAD

Associated space launch

Meteorological satellite using radiometric imaging

DELTA 1 DEB was lifted into orbit during the mission ‘Delta 2310 | NOAA 5’, on board a Delta 2310 space rocket.

The launch took place on July 29, 1976, 5:07 p.m. from Space Launch Complex 2W.

For more information about the launch, click the button.

Launch to space Delta 2310 | NOAA 5
Delta 2310 | NOAA 5

Agency: N/A

Status: Launch Successful

Launch date: July 29, 1976, 5:07 p.m. UTC

Rocket: Delta 2310

Launch pad: Space Launch Complex 2W

Location: Vandenberg SFB, CA, USA

...

Latest news about this satellite

There are no fresh news available about this satellite. Check back as we update our databases every day.


Newsletter sign-up

Weekly statistics, charts and insights to help you stay on top of the space industry.